Location: TAAA CAC
(31.8680°N, 109.5150°W)
Time: 21:56:23
(UTC-07:00)

BlueWalker 3 - Pass Details

Date: 19 March 2026
Orbit: 449 x 457 km, 53.2° (Epoch: 20 April)

Event Time Altitude Azimuth Distance (km) Brightness Sun altitude
Exits shadow 03:46:12 12° 71° (ENE) 1,498 5.1 -33.3°
Drops below altitude 10° 03:46:35 10° 76° (ENE) 1,589 5.3 -33.2°
Sets 03:49:21 0° 99° (E) 2,457 6.2 -32.7°
